KJ7AZ-3 Weather Reports


time (UTC)temp
C
wind
direction
speed
KPH
gust
KPH
rain 1hr
cm
rain 24hr
cm
rain mn
cm
humidity
%
barometer
mb
20260904140404 21 13 4.8 4.8 0.00 0.00 0.00
20260904133405 19 27 0.0 0.0 0.00 0.00 0.00
20260904131905 18 325 0.0 0.0 0.00 0.00 0.00
20260904124905 18 333 1.6 0.0 0.00 0.00 0.00
20260904123405 18 350 3.2 1.6 0.00 0.00 0.00
20260904120405 18 319 0.0 1.6 0.00 0.00 0.00
20260904114906 19 307 3.2 4.8 0.00 0.00 0.00
20260904113406 19 4 3.2 4.8 0.00 0.00 0.00
20260904111906 19 322 3.2 9.7 0.00 0.00 0.00
20260904110406 20 359 1.6 4.8 0.00 0.00 0.00
20260904104906 20 318 6.4 1.6 0.00 0.00 0.00
20260904103406 20 350 4.8 4.8 0.00 0.00 0.00
20260904101906 20 315 6.4 4.8 0.00 0.00 0.00
20260904100407 20 1 1.6 0.0 0.00 0.00 0.00
20260904094907 20 308 3.2 0.0 0.00 0.00 0.00
20260904093407 20 305 0.0 0.0 0.00 0.00 0.00
20260904091907 20 305 1.6 1.6 0.00 0.00 0.00
20260904090408 19 215 0.0 0.0 0.00 0.00 0.00
20260904084908 18 215 0.0 0.0 0.00 0.00 0.00
20260904083408 18 215 0.0 0.0 0.00 0.00 0.00
20260904081908 19 215 0.0 0.0 0.00 0.00 0.00
20260904080411 20 215 0.0 0.0 0.00 0.00 0.00
20260904074909 20 215 0.0 0.0 0.00 0.00 0.00
20260904073409 20 215 0.0 0.0 0.00 0.00 0.00
20260904071909 20 215 0.0 0.0 0.00 0.00 0.00
20260904070409 20 215 0.0 0.0 0.00 0.00 0.00
20260904064909 21 215 0.0 0.0 0.00 0.00 0.00
20260904063409 21 215 0.0 0.0 0.00 0.00 0.00
20260904061909 21 215 0.0 0.0 0.00 0.00 0.00
20260904060409 22 215 0.0 0.0 0.00 0.00 0.00
20260904054909 22 215 0.0 0.0 0.00 0.00 0.00
20260904053411 22 215 1.6 0.0 0.00 0.00 0.00
20260904051910 22 174 0.0 0.0 0.00 0.00 0.00
20260904050409 22 174 0.0 0.0 0.00 0.00 0.00
20260904044909 23 174 0.0 0.0 0.00 0.00 0.00
20260904043409 23 149 0.0 1.6 0.00 0.00 0.00
20260904041909 23 158 0.0 0.0 0.00 0.00 0.00
20260904040409 23 177 0.0 0.0 0.00 0.00 0.00
20260904033408 23 301 0.0 0.0 0.00 0.00 0.00
20260904031909 23 221 0.0 0.0 0.00 0.00 0.00
20260904030408 24 218 1.6 0.0 0.00 0.00 0.00
20260904024908 24 263 6.4 6.4 0.00 0.00 0.00
20260904023408 25 336 0.0 0.0 0.00 0.00 0.00
20260904021907 25 336 0.0 0.0 0.00 0.00 0.00
20260904020407 25 336 0.0 0.0 0.00 0.00 0.00
20260904014906 25 336 0.0 0.0 0.00 0.00 0.00
20260904013406 26 336 0.0 0.0 0.00 0.00 0.00
20260904011906 26 336 0.0 0.0 0.00 0.00 0.00
20260904010405 27 27 0.0 0.0 0.00 0.00 0.00
20260904004905 28 342 3.2 3.2 0.00 0.00 0.00
20260904003405 28 3 1.6 6.4 0.00 0.00 0.00
20260904001905 30 10 3.2 3.2 0.00 0.00 0.00
20260904000405 27 316 6.4 6.4 0.00 0.00 0.00
20260903234904 28 359 8.0 6.4 0.00 0.00 0.00
20260903233404 28 291 12.9 12.9 0.00 0.00 0.00
20260903231903 28 356 4.8 12.9 0.00 0.00 0.00
20260903230403 29 359 9.7 6.4 0.00 0.00 0.00
20260903224902 30 7 11.3 6.4 0.00 0.00 0.00
20260903223402 31 39 14.5 6.4 0.00 0.00 0.00
20260903220401 35 343 1.6 3.2 0.00 0.00 0.00
20260903214900 33 318 3.2 1.6 0.00 0.00 0.00
20260903213400 32 304 3.2 6.4 0.00 0.00 0.00
20260903211859 34 83 3.2 1.6 0.00 0.00 0.00
20260903210359 31 274 0.0 1.6 0.00 0.00 0.00
20260903204858 33 0 4.8 0.0 0.00 0.00 0.00
20260903203357 33 300 6.4 1.6 0.00 0.00 0.00
20260903200356 33 343 0.0 0.0 0.00 0.00 0.00
20260903194855 34 212 3.2 6.4 0.00 0.00 0.00
20260903193354 32 359 0.0 0.0 0.00 0.00 0.00
20260903190353 32 243 1.6 1.6 0.00 0.00 0.00
20260903183352 31 308 3.2 3.2 0.00 0.00 0.00
20260903181852 31 308 6.4 8.0 0.00 0.00 0.00
20260903174851 30 322 3.2 0.0 0.00 0.00 0.00
20260903173351 30 262 0.0 0.0 0.00 0.00 0.00
20260903171851 30 330 0.0 0.0 0.00 0.00 0.00
20260903170350 31 250 0.0 0.0 0.00 0.00 0.00
20260903164849 30 248 6.4 9.7 0.00 0.00 0.00
20260903163349 29 188 4.8 8.0 0.00 0.00 0.00
20260903161849 30 277 3.2 0.0 0.00 0.00 0.00
20260903154849 30 190 1.6 0.0 0.00 0.00 0.00
20260903153349 27 205 0.0 0.0 0.00 0.00 0.00
20260903151849 27 180 3.2 3.2 0.00 0.00 0.00
20260903150349 27 195 0.0 0.0 0.00 0.00 0.00
20260903144849 24 207 0.0 0.0 0.00 0.00 0.00
20260903143349 24 207 0.0 0.0 0.00 0.00 0.00